DAL8718 CYWG-KGFK

Flight info

Callsign DAL8718
Flight time N/A
Altitude 2500
Route CYWG/36 KAVKI DCT IKLUG/N0397F190
Aircraft C25C/M-SDE2E3FGHRWXY/LB1

Departure

Time 2026-05-07 01:03
Airport Winnipeg / James Armstrong Richardson International Airport (CYWG)

Arrival

Time N/A
Airport Grand Forks International Airport (KGFK)
Time Latitude Longitude Altitude Speed Heading
2026-05-07 01:00 49.89571 -97.24080 784 ft 0 kts 277°
2026-05-07 01:02 49.89577 -97.24117 784 ft 13 kts 290°
2026-05-07 01:02 49.89640 -97.24160 784 ft 0 kts
2026-05-07 01:03 49.89774 -97.24128 784 ft 73 kts
2026-05-07 01:03 49.90667 -97.23912 993 ft 167 kts
2026-05-07 01:03 49.91757 -97.23639 1440 ft 204 kts
2026-05-07 01:03 49.93239 -97.23268 2014 ft 235 kts
2026-05-07 01:04 49.95031 -97.22794 2425 ft 272 kts
2026-05-07 01:04 49.96824 -97.22328 2158 ft 245 kts
2026-05-07 01:04 49.98477 -97.21874 2321 ft 234 kts 10°
2026-05-07 01:04 50.00028 -97.21279 2256 ft 238 kts 27°
2026-05-07 01:05 50.01117 -97.19411 2254 ft 238 kts 62°
2026-05-07 01:05 50.01681 -97.17008 2259 ft 237 kts 71°
2026-05-07 01:05 50.02231 -97.14591 2142 ft 241 kts 70°
2026-05-07 01:05 50.02771 -97.12084 1962 ft 247 kts 71°
2026-05-07 01:06 50.03304 -97.09541 1991 ft 242 kts 72°
2026-05-07 01:06 50.03812 -97.07137 2198 ft 231 kts 71°
2026-05-07 01:06 50.04329 -97.04788 2316 ft 228 kts 70°
2026-05-07 01:06 50.04745 -97.02424 2283 ft 230 kts 85°
2026-05-07 01:07 50.04703 -96.99894 2088 ft 240 kts 92°
2026-05-07 01:07 50.04631 -96.97324 2039 ft 242 kts 92°
2026-05-07 01:07 50.04580 -96.94784 2259 ft 231 kts 91°
2026-05-07 01:07 50.04561 -96.92322 2395 ft 227 kts 90°
2026-05-07 01:08 50.04553 -96.89881 2503 ft 225 kts 90°
2026-05-07 01:08 50.04561 -96.87442 2429 ft 230 kts 89°
2026-05-07 01:08 50.04593 -96.84926 2363 ft 235 kts 88°
2026-05-07 01:08 50.04643 -96.82365 2289 ft 238 kts 88°
2026-05-07 01:09 50.04714 -96.79810 2344 ft 236 kts 87°
2026-05-07 01:09 50.04812 -96.77604 3321 ft 183 kts 85°
2026-05-07 01:09 50.05027 -96.75328 2850 ft 218 kts 75°
2026-05-07 01:09 50.05347 -96.73000 3000 ft 214 kts 81°
2026-05-07 01:10 50.05580 -96.70903 3600 ft 190 kts 79°
2026-05-07 01:10 50.05882 -96.68857 3963 ft 177 kts 75°
2026-05-07 01:10 50.06235 -96.67091 4157 ft 183 kts 70°
2026-05-07 01:10 50.06719 -96.65217 4345 ft 182 kts 65°
2026-05-07 01:11 50.07278 -96.63367 4288 ft 198 kts 67°
2026-05-07 01:11 50.07656 -96.61236 4251 ft 209 kts 76°
2026-05-07 01:11 50.08030 -96.59013 4250 ft 216 kts 75°
2026-05-07 01:11 50.08412 -96.56718 4251 ft 221 kts 75°
2026-05-07 01:12 50.08804 -96.54387 4249 ft 224 kts 75°
2026-05-07 01:12 50.09201 -96.52025 4251 ft 227 kts 75°
2026-05-07 01:12 50.09602 -96.49631 4251 ft 229 kts 75°
2026-05-07 01:12 50.10010 -96.47224 4251 ft 231 kts 75°
2026-05-07 01:13 50.10415 -96.44799 4248 ft 232 kts 75°
2026-05-07 01:13 50.10830 -96.42365 4251 ft 233 kts 75°
2026-05-07 01:13 50.11241 -96.39922 4248 ft 234 kts 75°
2026-05-07 01:13 50.11657 -96.37471 4247 ft 234 kts 75°
2026-05-07 01:14 50.12075 -96.35010 4248 ft 234 kts 75°
2026-05-07 01:14 50.12490 -96.32556 4247 ft 235 kts 75°
2026-05-07 01:14 50.12912 -96.30096 4249 ft 235 kts 75°
2026-05-07 01:14 50.13036 -96.29366 4249 ft 235 kts 75°